Location: Marcé
(47.5801°N, 0.3280°W)
Time: 11:47:48
(UTC+01:00)

Tiros 1 - Pass Details

Date: 05 December 2021
Orbit: 630 x 663 km, 48.4° (Epoch: 20 January)

Event Time Altitude Azimuth Distance (km) Brightness Sun altitude
Rises 18:29:36 0° 212° (SSW) 2,907 11.4 -12.8°
Reaches altitude 10° 18:32:11 10° 200° (SSW) 2,006 10.2 -13.2°
Maximum altitude 18:36:02 26° 143° (SE) 1,241 8.4 -13.8°
Enters shadow 18:38:17 18° 102° (ESE) 1,554 8.6 -14.1°
